Home   Weather   Regensdorf   Past weeks

Flag for Switzerland Past Weather in Regensdorf, Zurich, Switzerland — Yesterday and Last 2 Weeks

Now
48 °F

Cool.


Feels Like: 48 °F
Forecast: 51 / 67 °F
Wind: 1 mph from North

Location: Zurich-Kloten

Current Time: Sep 26, 2016 at 7:28:17 AM

Latest Report: Sep 26, 2016 at 6:00 AM


Visibility: N/A

Pressure: 30.21 "Hg

Humidity: 99%

Dew Point: 48 °F

Location of RegensdorfLocation

Past Weather in Regensdorf — Graph

°F

Regensdorf Temperature Yesterday

Maximum temperature yesterday: 73 °F (at 4:00 PM)
Minimum temperature yesterday: 46 °F (at 4:00 AM)
Average temperature yesterday: 57 °F

High & Low Weather Summary for the Past Weeks

 TemperatureHumidityPressure
High84 °F (Sep 12, 4:00 PM)100% (Sep 20, 12:00 AM)30.35 "Hg (Sep 20, 12:00 AM)
Low41 °F (Sep 22, 7:00 AM)40% (Sep 25, 4:00 PM)29.80 "Hg (Sep 14, 5:00 PM)
Average60 °F80%30.06 "Hg
* Reported Sep 11 6:00 AM — Sep 26 6:00 AM, Regensdorf, Weather by CustomWeather, © 2016

Note: Actual official high and low records may vary slightly from our data, if they occured in-between our weather recording intervals... More about our weather records

Advertising

Regensdorf Weather History for the Previous 24 Hours

Scroll right to see more
 ConditionsComfort  
Time TempWeatherWind HumidityBarometerVisibility
6:00 AM
Mon, Sep 26
48 °FCool.1 mph99%30.21 "HgN/A
5:00 AM48 °FFog.1 mph99%30.21 "Hg1 mi
4:00 AM49 °FCool.1 mph100%30.20 "HgN/A
3:00 AM50 °FCool.3 mph96%30.20 "HgN/A
2:00 AM51 °FFog.3 mph97%30.19 "Hg6 mi
1:00 AM53 °FCool.3 mph93%30.18 "HgN/A
12:00 AM55 °FCool.1 mph91%30.18 "HgN/A
11:00 PM
Sun, Sep 25
56 °FPassing clouds.3 mph89%30.17 "Hg9 mi
10:00 PM56 °FCool.3 mph89%30.16 "HgN/A
9:00 PM58 °FCool.1 mph84%30.14 "HgN/A
8:00 PM62 °FPassing clouds.2 mph75%30.12 "Hg12 mi
7:00 PM67 °FMild.2 mph61%30.09 "HgN/A
6:00 PM72 °FMild.3 mph48%30.07 "HgN/A
5:00 PM73 °FPassing clouds.2 mph41%30.06 "Hg14 mi
4:00 PM73 °FMild.3 mph40%30.06 "HgN/A
3:00 PM71 °FMild.2 mph55%30.07 "HgN/A
2:00 PM69 °FPassing clouds.3 mph58%30.10 "Hg9 mi
1:00 PM66 °FMild.2 mph72%30.12 "HgN/A
12:00 PM60 °FCool.3 mph85%30.16 "HgN/A
11:00 AM54 °FFog.1 mph96%30.19 "Hg1 mi
10:00 AM53 °FCool.2 mph100%30.21 "HgN/A
9:00 AM51 °FCool.3 mph100%30.22 "HgN/A
8:00 AM50 °FFog.2 mph100%30.21 "Hg0 mi
7:00 AM49 °FCool.2 mph100%30.21 "HgN/A
Weather by CustomWeather, © 2016

See weather overviewHow to use our weather pages